Tracking 30995 objects as of 7-Jul-2025
HD Live streaming from Space Station
objects crossing your sky now

STARLINK-32682

Track STARLINK-32682 now!
10-day predictions
STARLINK-32682 is classified as:


NORAD ID: 62196
Int'l Code: 2024-229E
Perigee: 489.4 km
Apogee: 491.0 km
Inclination: 43.0 °
Period: 94.3 minutes
Semi major axis: 6861 km
RCS: Unknown
Launch date: December 4, 2024
Source: United States (US)
Launch site: AIR FORCE EASTERN TEST RANGE (AFETR)
Your satellite tracking list
SL-8 DEB *
Track 1 satellite(s)




NASA's NSSDC Master Catalog

Two Line Element Set (TLE):
1 62196U 24229E   25187.43972794  .00007226  00000-0  27182-3 0  9991
2 62196  42.9972 188.7281 0001187 277.2737  82.7979 15.27583894 33275
Source of the keplerian elements: AFSPC